Location: Bailleul
(50.3375°N, 2.8513°E)
Time: 10:36:09
(UTC+00:00)

Cosmos 2297 Rocket - Pass Details

Date: 19 April 2021
Orbit: 838 x 844 km, 71.0° (Epoch: 05 May)

Event Time Altitude Azimuth Distance (km) Brightness Sun altitude
Rises 21:26:24 0° 214° (SW) 3,383 5.2 -20.9°
Reaches altitude 10° 21:28:50 10° 217° (SW) 2,453 4.4 -21.2°
Maximum altitude 21:34:27 71° 301° (WNW) 890 2.4 -21.7°
Drops below altitude 10° 21:40:08 10° 27° (NNE) 2,473 5.0 -22.2°
Sets 21:42:36 0° 29° (NNE) 3,412 5.7 -22.4°
